AirNav   ProFlight Series 2 Aviation Headset
 
 1634 users online  

PS24 Brownsville General Hospital Heliport
Brownsville, Pennsylvania, USA

GOING TO BROWNSVILLE?


FAA INFORMATION EFFECTIVE 13 AUGUST 2020

Location

FAA Identifier: PS24
Lat/Long: 40-00-13.2680N 079-52-32.1660W
40-00.221133N 079-52.536100W
40.0036856,-79.8756017
(estimated)
Elevation: 1199 ft. / 365 m (estimated)
Variation: 09W (2000)
From city: 1 mile NW of BROWNSVILLE, PA
Time zone: UTC -4 (UTC -5 during Standard Time)
Zip code: 15417

Heliport Operations

Heliport use: Private use, MEDICAL USE.
Activation date: 11/1983
Control tower: no
ARTCC: CLEVELAND CENTER
FSS: ALTOONA FLIGHT SERVICE STATION
NOTAMs facility: FDC (NOTAM-D service not available)
Attendance: CONTINUOUS
Wind indicator: yes
Segmented circle: no

Heliport Communications

CLARKSBURG APPROACH: 119.425
CLARKSBURG DEPARTURE: 119.425
WX AWOS-3 at VVS (10 nm E): 133.325 (724-626-8745)
WX AWOS-3 at FWQ (13 nm N): 118.475 (724-379-5815)
  • APCH/DEP SVC PRVDD BY CLEVELAND ARTCC (ZOB) ON FREQS 124.4/327.1 (ALTOONA RCAG) WHEN CLARKSBURG APCH CTL CLSD.

Nearby radio navigation aids

VOR radial/distance  VOR name  Freq  Var
AGCr164/18.2ALLEGHENY VOR/DME110.0009W
IHDr280/23.8INDIAN HEAD VORTAC108.2006W
MGWr004/26.8MORGANTOWN VOR/DME111.6005W
HLGr123/35.3WHEELING VOR/DME112.2007W

 
NDB name  Hdg/Dist  Freq  Var  ID
CAMOR328/9.429908WVV ...- ...-

Heliport Services

Runway Information

Helipad H1

Dimensions: 50 x 30 ft. / 15 x 9 m
Surface: asphalt, in fair condition
Latitude: 40-00.221133N
Longitude: 079-52.536100W
Elevation: 1199.0 ft.
Traffic pattern: leftleft
Markings: none, in fair condition

Heliport Ownership and Management from official FAA records

Ownership: Privately-owned
Owner: BROWNSVILLE GENERAL HOSPITAL
125 SIMPSON ROAD
BROWNSVILLE, PA 15414
Phone 412-785-7200
Manager: DON WILSON
125 SIMPSON ROAD
BROWNSVILLE, PA 15414
Phone 412-785-7200

Additional Remarks

A52-H1 15' STREET LIGHT 60' WEST; 35' UTILITY POLES 250' N & 290' WEST; 25' BLDG 171' SOUTH.
FOR CD CTC CLARKSBURG APCH AT 304-842-2011, WHEN APCH CLSD CTC CLEVELAND ARTCC AT 440-774-0226.

Instrument Procedures

There are no published instrument procedures at PS24.

Some nearby airports with instrument procedures:

KVVS - Joseph A Hardy Connellsville Airport (10 nm E)
KFWQ - Rostraver Airport (13 nm N)
KWAY - Greene County Airport (13 nm SW)
G05 - Finleyville Airpark (16 nm NW)
KAFJ - Washington County Airport (21 nm NW)
 
Loc | Ops | Rwys | IFR | FBO | Links
Com | Nav | Svcs | Stats | Notes
Area around PS24 (Brownsville General Hospital Heliport)
 
Road maps at: MapQuest Bing Google
 
Aerial photo
No photo
 
Sectional chart

 
Airport distance calculator
Flying to Brownsville General Hospital Heliport? Find the distance to fly.

From to PS24

Sunrise and sunset
Times for 13-Aug-2020
 Local
(UTC-4)
 Zulu
(UTC)
Morning civil twilight06:0210:02
Sunrise06:3110:31
Sunset20:1700:17
Evening civil twilight20:4600:46

Current date and time
Zulu (UTC)  13-Aug-2020 19:35:26
Local (UTC-4)  13-Aug-2020 15:35:26
 
METAR
KP53 
13nm N 
131856Z AUTO 34003KT 23/19 A3014 RMK AO1 SLP205 T02280189
KAFJ 
19nm W 
131856Z AUTO 06008KT 10SM OVC060 33/20 A3006 RMK AO2 SLP167 T03280200
KAGC 
21nm N 
131853Z 10SM FEW047 FEW090 31/19 A3004 RMK AO2 SLP165 T03110194
KMGW 
21nm S 
131853Z 08009KT 030V120 10SM BKN050 33/18 A3004 RMK AO2 LTG DSNT S SLP159 T03280183
TAF
KAGC 
21nm N 
131723Z 1318/1418 09004KT P6SM VCTS SCT080CB FM132300 09005KT P6SM SCT100 FM140200 10004KT P6SM BKN250 FM140800 07003KT P6SM BKN250 FM141500 09005KT P6SM BKN120
KMGW 
21nm S 
131723Z 1318/1418 08004KT P6SM VCTS BKN080CB FM140000 11004KT P6SM BKN150 FM140600 00000KT P6SM SCT150 FM141100 08003KT P6SM BKN060 FM141600 10005KT P6SM SCT050
NOTAMs
Click for the latest NOTAMs
NOTAMs are issued by the DoD/FAA and will open in a separate window not controlled by AirNav.

 

 
 

Would you like to see your business listed on this page?

 If your business provides an interesting product or service to pilots, flight crews, aircraft, or users of the Brownsville General Hospital Heliport, you should consider listing it here.  To start the listing process, click on the button below
 
Add a business
 

Other Pages about Brownsville General Hospital Heliport

Update a link
 
Copyright © AirNav, LLC. All rights reserved. Privacy Policy  Contact